User: anonymous   Login
Location: NJAA Observatory
(40.6819°N, 74.8979°W)
Time: 03:14:58
(UTC-04:00)
Language:

Cosmos 2082 - Orbit

View from above orbital plane
View from above orbital plane
View from above satellite
View from above satellite

Ground track
Ground track

The orbit data is extracted from the following two-line orbital elements,

1 20624U 90046A   18115.89731142 -.00000093 +00000-0 -23626-4 0  9991
2 20624 071.0391 280.0451 0017249 270.5658 089.3488 14.14250099441186
Epoch (UTC): 25 April 2018 21:32:07
Eccentricity: 0.0017249
inclination: 71.0391°
perigee height: 832 km
apogee height: 857 km
right ascension of ascending node: 280.0451°
argument of perigee: 270.5658°
revolutions per day: 14.14250099
mean anomaly at epoch: 89.3488°
orbit number at epoch: 44118

The dashed part of the orbit path shows where the satellite is in the earth's shadow,  

DLR